Detroit, MI

12:19 AM EST on January 23, 2017 (GMT -0500)
Detroit Metro Wayne County

Weather History for KDTW - March, 2014

Change the Weather History Date:

Saturday, March 1, 2014

  Actual Average Record
Temperature  
Mean Temperature 24 °F 32 °F  
Max Temperature 30 °F 40 °F 64 °F (1992)
Min Temperature 17 °F 24 °F 1 °F (1962)
Degree Days  
Heating Degree Days 41 33  
Month to date heating degree days 41 33  
Since 1 July heating degree days 5291 4586  
Cooling Degree Days 0 0  
Month to date cooling degree days 0 0  
Year to date cooling degree days 0 0  
Moisture  
Dew Point 17 °F    
Average Humidity 74    
Maximum Humidity 91    
Minimum Humidity 57    
Precipitation  
Precipitation 0.22 in 0.07 in 1.29 in (2007)
Month to date precipitation 0.22 0.07  
Year to date precipitation 5.96 4.05  
Snow  
Snow 2.50 in 0.30 in 6.20 in (1976)
Month to date snowfall 2.5 0.3  
Since 1 July snowfall 81.7 34.2  
Snow Depth 12.00 in    
Sea Level Pressure  
Sea Level Pressure 30.17 in    
Wind  
Wind Speed 5 mph (NW)    
Max Wind Speed 12 mph    
Max Gust Speed 15 mph    
Visibility 5 miles    
Events Snow    
T = Trace of Precipitation, MM = Missing Value Source: NWS Daily Summary

Daily Weather History Graph

Daily Weather History Graph

Search for Another Location

Airport or City:

Trip Planner

Search our weather history database for the weather conditions in past years. The results will help you decide how hot, cold, wet, or windy it might be!

Date:

Astronomy

Mar. 01, 2014 Rise Set
Actual Time 7:08 AM EST 6:23 PM EST
Civil Twilight 6:40 AM EST 6:51 PM EST
Nautical Twilight 6:08 AM EST 7:24 PM EST
Astronomical Twilight 5:35 AM EST 7:56 PM EST
Moon 7:00 AM EST (3/1) 7:11 PM EST (3/1)
Length of Visible Light 12h 11m
Length of Day
11h 14m
New Moon, 0% of the Moon is Illuminated
Mar 1
New Moon
Mar 8
First Quarter
Mar 16
Full
Mar 23
Last Quarter
Mar 30
New

Hourly Weather History & Observations

Time (EST) Temp. Windchill Dew Point Humidity Pressure Visibility Wind Dir Wind Speed Gust Speed Precip Events Conditions
12:53 AM 18.0 °F - 10.0 °F 71% 30.12 in 10.0 mi Calm Calm - N/A   Mostly Cloudy
1:53 AM 18.0 °F - 10.0 °F 71% 30.11 in 10.0 mi Calm Calm - N/A   Mostly Cloudy
2:53 AM 19.0 °F 12.3 °F 12.9 °F 77% 30.09 in 10.0 mi SSE 4.6 mph - N/A   Mostly Cloudy
3:53 AM 21.0 °F - 12.9 °F 71% 30.09 in 10.0 mi Calm Calm - N/A   Overcast
4:53 AM 19.9 °F - 14.0 °F 78% 30.09 in 10.0 mi Calm Calm - N/A   Overcast
5:53 AM 19.9 °F - 12.9 °F 74% 30.10 in 10.0 mi Calm Calm - N/A   Overcast
6:53 AM 23.0 °F 15.8 °F 12.9 °F 65% 30.11 in 10.0 mi SW 5.8 mph - N/A   Overcast
7:53 AM 23.0 °F 18.4 °F 14.0 °F 68% 30.12 in 10.0 mi SSW 3.5 mph - N/A   Overcast
8:53 AM 26.1 °F 16.8 °F 14.0 °F 60% 30.13 in 10.0 mi SSW 9.2 mph - N/A   Overcast
9:53 AM 28.0 °F 24.2 °F 15.1 °F 58% 30.13 in 10.0 mi WSW 3.5 mph - N/A   Overcast
10:53 AM 28.9 °F 22.8 °F 15.1 °F 56% 30.14 in 10.0 mi WSW 5.8 mph - N/A   Overcast
11:53 AM 28.9 °F 22.8 °F 16.0 °F 58% 30.16 in 10.0 mi West 5.8 mph - N/A   Overcast
12:53 PM 30.0 °F 24.1 °F 19.9 °F 66% 30.14 in 10.0 mi WNW 5.8 mph - N/A   Overcast
1:53 PM 30.0 °F 23.2 °F 21.9 °F 72% 30.14 in 8.0 mi NW 6.9 mph - N/A   Overcast
2:53 PM 28.9 °F 21.9 °F 21.9 °F 75% 30.15 in 8.0 mi WNW 6.9 mph - N/A   Overcast
3:00 PM 28.4 °F 21.2 °F 21.2 °F 74% 30.12 in 7.0 mi WNW 6.9 mph - N/A   Overcast
3:53 PM 28.0 °F 20.8 °F 21.9 °F 78% 30.17 in 7.0 mi West 6.9 mph - N/A   Overcast
4:21 PM 28.4 °F 22.2 °F 21.2 °F 74% 30.13 in 5.0 mi WNW 5.8 mph - 0.00 in Snow Light Snow
4:53 PM 27.0 °F 18.0 °F 19.9 °F 75% 30.18 in 5.0 mi NW 9.2 mph - 0.00 in Snow Light Snow
5:53 PM 26.1 °F 17.6 °F 19.0 °F 75% 30.19 in 2.5 mi NW 8.1 mph - 0.00 in Snow Light Snow
5:58 PM 24.8 °F 16.1 °F 19.4 °F 80% 30.16 in 1.5 mi NW 8.1 mph - 0.00 in Snow Light Snow
6:23 PM 24.8 °F 16.1 °F 19.4 °F 80% 30.17 in 2.0 mi NW 8.1 mph - 0.01 in Snow Light Snow
6:31 PM 24.8 °F 16.1 °F 19.4 °F 80% 30.17 in 2.0 mi NW 8.1 mph - 0.01 in Snow Light Snow
6:53 PM 24.1 °F 15.2 °F 21.0 °F 88% 30.22 in 2.0 mi NW 8.1 mph - 0.01 in Snow Light Snow
7:03 PM 24.8 °F 16.1 °F 21.2 °F 86% 30.19 in 2.0 mi NNW 8.1 mph - 0.01 in Snow Light Snow
7:16 PM 24.8 °F 16.9 °F 19.4 °F 80% 30.19 in 1.5 mi NNW 6.9 mph - 0.01 in Snow Light Snow
7:27 PM 24.8 °F 16.1 °F 19.4 °F 80% 30.19 in 2.0 mi NNW 8.1 mph - 0.02 in Snow Light Snow
7:53 PM 23.0 °F 13.1 °F 18.0 °F 81% 30.24 in 5.0 mi NNW 9.2 mph - 0.02 in Snow Light Snow
8:20 PM 23.0 °F 11.7 °F 17.6 °F 80% 30.22 in 2.5 mi NW 11.5 mph - 0.00 in Snow Light Snow
8:25 PM 23.0 °F 13.9 °F 17.6 °F 80% 30.21 in 1.5 mi NNW 8.1 mph - 0.00 in Snow Light Snow
8:36 PM 21.2 °F 10.1 °F 17.6 °F 86% 30.21 in 1.2 mi NW 10.4 mph - 0.01 in Snow Light Snow
8:48 PM 21.2 °F 11.7 °F 17.6 °F 86% 30.22 in 1.0 mi NNW 8.1 mph - 0.02 in Snow Light Snow
8:53 PM 21.0 °F 12.4 °F 18.0 °F 88% 30.24 in 1.0 mi NNW 6.9 mph - 0.03 in Snow Light Snow
9:13 PM 21.2 °F 13.6 °F 17.6 °F 86% 30.22 in 1.5 mi NNW 5.8 mph - 0.01 in Snow Light Snow
9:16 PM 21.2 °F 12.6 °F 17.6 °F 86% 30.22 in 2.0 mi NNW 6.9 mph - 0.01 in Snow Light Snow
9:30 PM 21.2 °F 13.6 °F 17.6 °F 86% 30.22 in 1.0 mi NNW 5.8 mph - 0.02 in Snow Light Snow
9:50 PM 19.4 °F 9.5 °F 17.6 °F 93% 30.23 in 1.0 mi NW 8.1 mph - 0.03 in Snow Light Snow
9:53 PM 19.9 °F 11.1 °F 17.1 °F 89% 30.26 in 1.0 mi NW 6.9 mph - 0.04 in Snow Light Snow
10:45 PM 19.4 °F 11.5 °F 15.8 °F 86% 30.24 in 1.0 mi NW 5.8 mph - 0.04 in Snow Light Snow
10:53 PM 19.9 °F 14.9 °F 17.1 °F 89% 30.27 in 1.0 mi NNW 3.5 mph - 0.04 in Snow Light Snow
11:53 PM 19.0 °F 11.1 °F 16.0 °F 88% 30.29 in 1.0 mi NNW 5.8 mph - 0.05 in Snow Light Snow
11:58 PM 19.4 °F 7.2 °F 15.8 °F 86% 30.25 in 0.8 mi North 11.5 mph - 0.00 in Snow Light Snow